Location: Civry
(47.2902°N, 4.6156°E)
Time: 11:11:02
(UTC+00:00)

SPOT 5 - Pass Details

Date: 09 April 2020
Orbit: 624 x 814 km, 98.3° (Epoch: 25 May)

Event Time Altitude Azimuth Distance (km) Brightness Sun altitude
Exits shadow 22:10:51 26° 291° (WNW) 1,228 4.4 -31.0°
Drops below altitude 10° 22:13:35 10° 326° (NW) 2,007 6.0 -31.3°
Sets 22:16:01 0° 337° (NNW) 2,924 7.2 -31.4°
